When you browse on this site, cookies collect data to enhance your experience and personalize the content and advertising you see.
Visit our Privacy Policy to learn more. By continuing to use the site, you agree to this use of cookies and data.
  • In Hungary
  • List of Countries
  • For 7 days
  • Water Temperature
  • Weather Map
  • News
  • Weather Widgets
  • user-avatar
    Login

    Hourly Weather Bucaramanga

    Today, 18 November, Monday

    Time Temperature Precipitation Wind Pressure Humidity
    00:00 +19°C° 0 mm 0 mps 671 mmHg 93%
    01:00 +19°C° 0 mm 0 mps 671 mmHg 91%
    02:00 +18°C° 0 mm 0 mps 671 mmHg 91%
    03:00 +20°C° 0 mm 1 mps 671 mmHg 91%
    04:00 +20°C° 0 mm 1 mps 671 mmHg 90%
    05:00 +21°C° 0 mm 1 mps 671 mmHg 89%
    06:00 +20°C° 0 mm 0 mps 672 mmHg 87%
    07:00 +21°C° 0 mm 0 mps 672 mmHg 85%
    08:00 +24°C° 0 mm 1 mps 673 mmHg 80%
    09:00 +26°C° 0 mm 1 mps 673 mmHg 75%
    10:00 +27°C° 0 mm 2 mps 673 mmHg 70%
    11:00 +27°C° 0.2 mm 2 mps 673 mmHg 73%
    12:00 +27°C° 0.2 mm 2 mps 672 mmHg 76%
    13:00 +27°C° 0.2 mm 2 mps 671 mmHg 79%
    14:00 +26°C° 0.4 mm 1 mps 671 mmHg 82%
    15:00 +26°C° 0.4 mm 1 mps 670 mmHg 85%
    16:00 +25°C° 0.4 mm 1 mps 670 mmHg 87%
    17:00 +24°C° 0.8 mm 1 mps 670 mmHg 91%
    18:00 +23°C° 0.8 mm 1 mps 671 mmHg 94%
    19:00 +20°C° 0.8 mm 0 mps 671 mmHg 97%
    20:00 +20°C° 0.2 mm 0 mps 671 mmHg 96%
    21:00 +20°C° 0.2 mm 0 mps 672 mmHg 96%
    22:00 +20°C° 0.2 mm 0 mps 672 mmHg 96%
    23:00 +19°C° 0.8 mm 0 mps 672 mmHg 95%

    Tomorrow, 19 November, Tuesday

    Time Temperature Precipitation Wind Pressure Humidity
    00:00 +19°C° 0.8 mm 0 mps 672 mmHg 95%
    01:00 +19°C° 0.8 mm 0 mps 672 mmHg 95%
    02:00 +19°C° 0.6 mm 0 mps 672 mmHg 95%
    03:00 +19°C° 0.6 mm 0 mps 672 mmHg 95%
    04:00 +21°C° 0.6 mm 1 mps 671 mmHg 95%
    05:00 +19°C° 0.1 mm 0 mps 672 mmHg 94%
    06:00 +20°C° 0.1 mm 0 mps 673 mmHg 93%
    07:00 +20°C° 0.1 mm 0 mps 673 mmHg 92%
    08:00 +23°C° 0.1 mm 1 mps 673 mmHg 88%
    09:00 +25°C° 0.1 mm 1 mps 674 mmHg 84%
    10:00 +26°C° 0.1 mm 2 mps 674 mmHg 80%
    11:00 +26°C° 0.3 mm 2 mps 673 mmHg 80%
    12:00 +26°C° 0.3 mm 2 mps 672 mmHg 81%
    13:00 +26°C° 0.3 mm 2 mps 671 mmHg 82%
    14:00 +26°C° 0.4 mm 2 mps 671 mmHg 84%
    15:00 +26°C° 0.4 mm 1 mps 671 mmHg 85%
    16:00 +25°C° 0.4 mm 1 mps 671 mmHg 87%
    17:00 +24°C° 0.3 mm 1 mps 671 mmHg 90%
    18:00 +23°C° 0.3 mm 1 mps 672 mmHg 93%
    19:00 +20°C° 0.3 mm 0 mps 672 mmHg 96%
    20:00 +20°C° 0.5 mm 0 mps 672 mmHg 96%
    21:00 +20°C° 0.5 mm 0 mps 673 mmHg 95%
    22:00 +19°C° 0.5 mm 0 mps 673 mmHg 94%
    23:00 +19°C° 1.2 mm 0 mps 673 mmHg 95%

    Day after tomorrow, 20 November, Wednesday

    Time Temperature Precipitation Wind Pressure Humidity
    00:00 +19°C° 1.2 mm 0 mps 673 mmHg 95%
    01:00 +19°C° 1.2 mm 0 mps 672 mmHg 95%
    02:00 +19°C° 1.1 mm 0 mps 672 mmHg 95%
    03:00 +19°C° 1.1 mm 0 mps 672 mmHg 95%
    04:00 +19°C° 1.1 mm 0 mps 672 mmHg 95%
    05:00 +19°C° 0.5 mm 0 mps 673 mmHg 94%
    06:00 +20°C° 0.5 mm 0 mps 673 mmHg 94%
    07:00 +20°C° 0.5 mm 0 mps 673 mmHg 93%
    08:00 +23°C° 0.4 mm 1 mps 674 mmHg 92%
    09:00 +24°C° 0.4 mm 1 mps 674 mmHg 90%
    10:00 +24°C° 0.4 mm 1 mps 674 mmHg 89%
    11:00 +25°C° 0.7 mm 1 mps 673 mmHg 88%
    12:00 +25°C° 0.7 mm 1 mps 673 mmHg 88%
    13:00 +25°C° 0.7 mm 2 mps 672 mmHg 87%
    14:00 +25°C° 0.6 mm 1 mps 672 mmHg 88%
    15:00 +25°C° 0.6 mm 1 mps 671 mmHg 88%
    16:00 +25°C° 0.6 mm 1 mps 671 mmHg 89%
    17:00 +24°C° 0.5 mm 1 mps 671 mmHg 91%
    18:00 +21°C° 0.5 mm 0 mps 671 mmHg 93%
    19:00 +20°C° 0.5 mm 0 mps 672 mmHg 95%
    20:00 +20°C° 0.2 mm 0 mps 672 mmHg 94%
    21:00 +19°C° 0.2 mm 0 mps 673 mmHg 94%
    22:00 +19°C° 0.2 mm 0 mps 673 mmHg 93%
    23:00 +19°C° 0.5 mm 0 mps 673 mmHg 93%

    21 November, Thursday

    Time Temperature Precipitation Wind Pressure Humidity
    00:00 +19°C° 0.5 mm 0 mps 672 mmHg 93%
    01:00 +18°C° 0.5 mm 0 mps 672 mmHg 93%
    02:00 +18°C° 0.3 mm 0 mps 672 mmHg 93%
    03:00 +18°C° 0.3 mm 0 mps 672 mmHg 93%
    04:00 +18°C° 0.3 mm 0 mps 672 mmHg 93%
    05:00 +19°C° 0 mm 0 mps 672 mmHg 92%
    06:00 +19°C° 0 mm 0 mps 673 mmHg 91%
    07:00 +20°C° 0 mm 0 mps 673 mmHg 89%
    08:00 +23°C° 0.4 mm 1 mps 673 mmHg 88%
    09:00 +24°C° 0.4 mm 1 mps 674 mmHg 87%
    10:00 +25°C° 0.4 mm 1 mps 674 mmHg 86%
    11:00 +25°C° 1 mm 1 mps 673 mmHg 87%
    12:00 +25°C° 1 mm 1 mps 672 mmHg 88%
    13:00 +25°C° 1 mm 1 mps 671 mmHg 88%
    14:00 +25°C° 0.8 mm 1 mps 671 mmHg 89%
    15:00 +25°C° 0.8 mm 1 mps 671 mmHg 90%
    16:00 +24°C° 0.8 mm 1 mps 670 mmHg 90%
    17:00 +23°C° 1 mm 1 mps 671 mmHg 92%
    18:00 +23°C° 1 mm 1 mps 671 mmHg 94%
    19:00 +20°C° 1 mm 0 mps 671 mmHg 96%
    20:00 +19°C° 1.2 mm 0 mps 672 mmHg 94%
    21:00 +21°C° 1.2 mm 1 mps 672 mmHg 93%
    22:00 +21°C° 1.2 mm 1 mps 673 mmHg 92%
    23:00 +19°C° 1.1 mm 0 mps 672 mmHg 91%

    22 November, Friday

    Time Temperature Precipitation Wind Pressure Humidity
    00:00 +19°C° 1.1 mm 0 mps 672 mmHg 91%
    01:00 +18°C° 1.1 mm 0 mps 671 mmHg 91%
    02:00 +18°C° 1.3 mm 0 mps 671 mmHg 92%
    03:00 +18°C° 1.3 mm 0 mps 671 mmHg 92%
    04:00 +18°C° 1.3 mm 0 mps 671 mmHg 93%
    05:00 +19°C° 0.6 mm 0 mps 672 mmHg 91%
    06:00 +19°C° 0.6 mm 0 mps 672 mmHg 90%
    07:00 +20°C° 0.6 mm 0 mps 673 mmHg 88%
    08:00 +22°C° 0.6 mm 1 mps 673 mmHg 88%
    09:00 +23°C° 0.6 mm 1 mps 673 mmHg 88%
    10:00 +24°C° 0.6 mm 1 mps 674 mmHg 88%
    11:00 +25°C° 0.4 mm 1 mps 673 mmHg 86%
    12:00 +25°C° 0.4 mm 1 mps 672 mmHg 84%
    13:00 +25°C° 0.4 mm 1 mps 672 mmHg 81%
    14:00 +25°C° 0.5 mm 1 mps 671 mmHg 83%
    15:00 +25°C° 0.5 mm 1 mps 671 mmHg 84%
    16:00 +25°C° 0.5 mm 1 mps 670 mmHg 85%
    17:00 +24°C° 0.9 mm 1 mps 671 mmHg 89%
    18:00 +21°C° 0.9 mm 0 mps 671 mmHg 93%
    19:00 +20°C° 0.9 mm 0 mps 671 mmHg 96%
    20:00 +20°C° 0.3 mm 0 mps 671 mmHg 96%
    21:00 +19°C° 0.3 mm 0 mps 672 mmHg 95%
    22:00 +19°C° 0.3 mm 0 mps 672 mmHg 94%
    23:00 +19°C° 0.4 mm 0 mps 672 mmHg 94%

    23 November, Saturday

    Time Temperature Precipitation Wind Pressure Humidity
    00:00 +19°C° 0.4 mm 0 mps 672 mmHg 94%
    01:00 +19°C° 0.4 mm 0 mps 671 mmHg 94%
    02:00 +18°C° 0.5 mm 0 mps 671 mmHg 94%
    03:00 +18°C° 0.5 mm 0 mps 671 mmHg 94%
    04:00 +18°C° 0.5 mm 0 mps 671 mmHg 94%
    05:00 +19°C° 0.4 mm 0 mps 671 mmHg 93%
    06:00 +19°C° 0.4 mm 0 mps 672 mmHg 92%
    07:00 +20°C° 0.4 mm 0 mps 673 mmHg 92%
    08:00 +20°C° 0.4 mm 0 mps 673 mmHg 91%
    09:00 +23°C° 0.4 mm 1 mps 673 mmHg 91%
    10:00 +24°C° 0.4 mm 1 mps 673 mmHg 91%
    11:00 +24°C° 0.8 mm 1 mps 673 mmHg 89%
    12:00 +25°C° 0.8 mm 1 mps 672 mmHg 88%
    13:00 +25°C° 0.8 mm 1 mps 671 mmHg 86%
    14:00 +25°C° 0.7 mm 1 mps 671 mmHg 88%
    15:00 +25°C° 0.7 mm 1 mps 670 mmHg 89%
    16:00 +24°C° 0.7 mm 1 mps 670 mmHg 90%
    17:00 +24°C° 0.4 mm 1 mps 670 mmHg 92%
    18:00 +23°C° 0.4 mm 1 mps 671 mmHg 94%
    19:00 +20°C° 0.4 mm 0 mps 671 mmHg 96%
    20:00 +20°C° 0.5 mm 0 mps 671 mmHg 95%
    21:00 +19°C° 0.5 mm 0 mps 672 mmHg 93%
    22:00 +19°C° 0.5 mm 0 mps 672 mmHg 92%
    23:00 +19°C° 0.6 mm 0 mps 672 mmHg 92%
    Show more